Weather History for KLPR - October, 2012

Change the Weather History Date:

Tuesday, October 30, 2012

  Actual Average (KCLE) Record (KCLE)
Temperature  
Mean Temperature 44 °F 50 °F  
Max Temperature 46 °F 58 °F 79 °F (1950)
Min Temperature 41 °F 42 °F 23 °F (1980)
Degree Days  
Heating Degree Days 22 15  
Month to date heating degree days 340  
Since 1 July heating degree days 443  
Cooling Degree Days 0 0  
Month to date cooling degree days 10  
Year to date cooling degree days 814  
Moisture  
Dew Point 41 °F    
Average Humidity 90    
Maximum Humidity 100    
Minimum Humidity 81    
Precipitation  
Precipitation 2.42 in 0.10 in 1.94 in (2012)
Month to date precipitation 2.97  
Year to date precipitation 32.32  
Snow  
Snow 0.00 in 0.10 in - ()
Month to date snowfall 0.2  
Since 1 July snowfall 0.2  
Since 1 September snowfall 0.2  
Snow Depth -    
Sea Level Pressure  
Sea Level Pressure 29.32 in    
Wind  
Wind Speed 29 mph (North)    
Max Wind Speed 40 mph    
Max Gust Speed 63 mph    
Visibility 4 miles    
Events Rain    
T = Trace of Precipitation, MM = Missing Value Source: NWS Daily Summary

Daily Weather History Graph

Daily Weather History Graph

Search for Another Location

Airport or City:

Trip Planner

Search our weather history database for the weather conditions in past years. The results will help you decide how hot, cold, wet, or windy it might be!

Date:

Astronomy

Oct. 30, 2012 Rise Set
Actual Time 7:58 AM EDT 6:25 PM EDT
Civil Twilight 7:29 AM EDT 6:54 PM EDT
Nautical Twilight 6:57 AM EDT 7:26 PM EDT
Astronomical Twilight 6:24 AM EDT 7:59 PM EDT
Moon 6:53 PM EDT 8:44 AM EDT
Length of Visible Light 11h 24m
Length of Day
10h 27m
Full, 99% of the Moon is Illuminated
Oct 30
Full
Nov 6
Last Quarter
Nov 13
New
Nov 20
First Quarter
Nov 28
Full

Hourly Weather History & Observations

Time (EDT) Temp. Windchill Dew Point Humidity Pressure Visibility Wind Dir Wind Speed Gust Speed Precip Events Conditions
12:53 AM 41.0 °F 29.0 °F 37.0 °F 86% 29.45 in 6.0 mi North 35.7 mph 56.4 mph 0.09 in   Overcast
1:36 AM 41.0 °F 28.3 °F 37.4 °F 87% 29.39 in 6.0 mi North 40.3 mph 58.7 mph 0.05 in   Overcast
1:53 AM 41.0 °F 28.8 °F 37.0 °F 86% 29.40 in 5.0 mi North 36.8 mph 63.3 mph 0.07 in   Overcast
3:50 AM 41.0 °F 29.7 °F 37.4 °F 87% 29.34 in 2.5 mi North 31.1 mph 51.8 mph 0.16 in   Overcast
3:53 AM 41.0 °F 29.3 °F 37.9 °F 89% 29.36 in 2.5 mi North 33.4 mph 51.8 mph 0.17 in   Overcast
4:02 AM 41.0 °F 29.8 °F 37.4 °F 87% 29.34 in 3.0 mi North 29.9 mph 49.5 mph 0.04 in Rain Heavy Rain
4:53 AM 41.0 °F 29.0 °F 37.9 °F 89% 29.34 in 4.0 mi North 35.7 mph 49.5 mph 0.26 in Rain Heavy Rain
5:53 AM 42.1 °F 31.5 °F 37.9 °F 85% 29.33 in 4.0 mi North 28.8 mph 42.6 mph 0.28 in Rain Heavy Rain
6:11 AM 42.8 °F 32.5 °F 39.2 °F 87% 29.31 in 3.0 mi North 28.8 mph 43.7 mph 0.07 in Rain Light Rain
6:39 AM 42.8 °F 32.7 °F 39.2 °F 87% 29.31 in 5.0 mi North 27.6 mph 40.3 mph 0.21 in Rain Heavy Rain
6:53 AM 42.1 °F 32.6 °F 39.0 °F 89% 29.31 in 3.0 mi North 23.0 mph 43.7 mph 0.28 in Rain Heavy Rain
6:58 AM 42.8 °F 33.5 °F 39.2 °F 87% 29.30 in 3.0 mi North 23.0 mph 41.4 mph 0.03 in Rain Heavy Rain
7:53 AM 43.0 °F 33.1 °F 39.9 °F 89% 29.30 in 5.0 mi North 26.5 mph 40.3 mph 0.30 in Rain Rain
8:22 AM 44.6 °F 36.4 °F 39.2 °F 81% 29.28 in 6.0 mi North 20.7 mph 39.1 mph 0.09 in Rain Rain
8:53 AM 44.1 °F 34.6 °F 39.9 °F 85% 29.29 in - North 26.5 mph 43.7 mph 0.17 in Rain Light Rain
9:37 AM 44.6 °F 34.4 °F 41.0 °F 87% 29.27 in 2.5 mi North 32.2 mph 47.2 mph 0.08 in Rain Light Rain
9:51 AM 44.6 °F 35.1 °F 41.0 °F 87% 29.27 in 1.5 mi North 27.6 mph 43.7 mph 0.10 in Rain Light Rain
9:53 AM 44.1 °F 35.0 °F 41.0 °F 89% 29.28 in 1.8 mi North 24.2 mph 39.1 mph 0.11 in Rain Light Rain
10:18 AM 44.6 °F 35.5 °F 41.0 °F 87% 29.27 in 1.2 mi North 25.3 mph 42.6 mph 0.05 in   Overcast
10:39 AM 44.6 °F 34.7 °F 41.0 °F 87% 29.27 in 2.5 mi North 29.9 mph 44.9 mph 0.08 in Rain Light Rain
10:48 AM 44.6 °F 34.1 °F 41.0 °F 87% 29.26 in 2.5 mi North 34.5 mph 48.3 mph 0.09 in Rain Light Rain
10:53 AM 45.0 °F 35.4 °F 41.0 °F 86% 29.27 in 4.0 mi North 28.8 mph 48.3 mph 0.09 in Rain Light Rain
11:13 AM 44.6 °F 35.3 °F 42.8 °F 93% 29.26 in 3.0 mi North 26.5 mph 43.7 mph 0.00 in Rain Light Rain
11:53 AM 45.0 °F 35.6 °F 42.1 °F 90% 29.28 in 5.0 mi North 27.6 mph 40.3 mph 0.00 in   Overcast
12:22 PM 46.4 °F 38.5 °F 42.8 °F 87% 29.27 in 10.0 mi North 21.9 mph 39.1 mph 0.00 in   Overcast
12:53 PM 46.0 °F 37.0 °F 42.1 °F 86% 29.28 in 10.0 mi North 27.6 mph 40.3 mph 0.01 in   Overcast
1:43 PM 46.4 °F 38.5 °F 42.8 °F 87% 29.28 in 2.0 mi North 21.9 mph 39.1 mph 0.03 in   Overcast
1:53 PM 46.0 °F 38.0 °F 42.1 °F 86% 29.29 in 7.0 mi North 21.9 mph 38.0 mph 0.04 in Rain Light Rain
2:16 PM 46.4 °F 38.1 °F 42.8 °F 87% 29.28 in 5.0 mi North 24.2 mph 42.6 mph 0.02 in Rain Light Rain
2:51 PM 46.4 °F 39.0 °F 42.8 °F 87% 29.29 in 2.0 mi North 19.6 mph 33.4 mph 0.09 in   Overcast
2:53 PM 46.0 °F 38.3 °F 44.1 °F 93% 29.30 in 2.0 mi North 20.7 mph 33.4 mph 0.09 in   Overcast
3:04 PM 46.4 °F 38.7 °F 44.6 °F 93% 29.29 in 1.8 mi North 20.7 mph 39.1 mph 0.02 in   Overcast
3:12 PM 46.4 °F 37.4 °F 44.6 °F 93% 29.29 in 3.0 mi North 28.8 mph 40.3 mph 0.03 in   Overcast
3:35 PM 46.4 °F 38.3 °F 44.6 °F 93% 29.30 in 1.8 mi North 23.0 mph 36.8 mph 0.10 in Rain Heavy Rain
3:53 PM 46.0 °F 38.5 °F 45.0 °F 96% 29.31 in 4.0 mi North 19.6 mph 36.8 mph 0.14 in Rain Rain
4:53 PM 46.0 °F 38.3 °F 45.0 °F 96% 29.33 in 6.0 mi North 20.7 mph 32.2 mph 0.06 in Rain Light Rain
5:53 PM 46.0 °F 37.8 °F 45.0 °F 96% 29.35 in 8.0 mi North 23.0 mph 36.8 mph 0.02 in Rain Light Rain
6:53 PM 46.0 °F 38.0 °F 45.0 °F 96% 29.38 in 8.0 mi North 21.9 mph 31.1 mph 0.02 in Rain Light Rain
7:12 PM 46.4 °F 38.3 °F 44.6 °F 93% 29.38 in 10.0 mi North 23.0 mph 33.4 mph 0.01 in Rain Light Rain
8:53 PM 45.0 °F 36.4 °F 44.1 °F 97% 29.42 in 9.0 mi NNW 23.0 mph 29.9 mph 0.03 in Rain Light Rain
9:53 PM 44.1 °F 36.2 °F 43.0 °F 96% 29.43 in 9.0 mi NNW 18.4 mph 25.3 mph 0.01 in Rain Light Rain
10:53 PM 42.1 °F 33.1 °F 42.1 °F 100% 29.44 in 2.5 mi NW 20.7 mph 26.5 mph 0.06 in Rain Rain
11:28 PM 42.8 °F 34.5 °F 42.8 °F 100% 29.43 in 4.0 mi NW 18.4 mph 28.8 mph 0.08 in Rain Rain
11:53 PM 42.1 °F 33.3 °F 41.0 °F 96% 29.44 in 4.0 mi NW 19.6 mph - 0.12 in Rain Rain